Regional Weather Roundup
Issued by NWS

Home | Current Version | Previous Version | Text Only | Print | Product List | Glossary Off
Versions: 1 2 3 4 5 6 7 8 9 10 11 12 13 14 15 16 17 18 19 20 21 22 23 24 25 26 27 28 29 30 31 32 33 34 35 36 37 38 39 40 41 42 43 44 45 46 47 48 49 50

000
ASUS45 KBOU 241907
RWRCO

WEATHER ROUNDUP FOR COLORADO
NATIONAL WEATHER SERVICE DENVER/BOULDER CO
100 PM MDT FRI MAR 24 2017

NOTE: "FAIR" INDICATES FEW OR NO CLOUDS BELOW 12000 FEET WITH NO
SIGNIFICANT WEATHER AND/OR OBSTRUCTIONS TO VISIBILITY.

COZ001>005-013-030-031-242000-
...NORTHWEST COLORADO...

CITY           SKY/WX    TMP DP  RH WIND       PRES   REMARKS
CRAIG          PTSUNNY   51  25  36 N8        30.19S
HAYDEN         PTSUNNY   48  25  40 NE8       30.18F
MEEKER         PTSUNNY   47  28  47 SW8       30.20F
MOUNT WERNER   NOT AVBL
STEAMBOAT SPGS FAIR      44  24  45 CALM      30.18F
WALDEN         NOT AVBL
$$

COZ006>008-011-242000-
...WEST CENTRAL VALLEYS...

CITY           SKY/WX    TMP DP  RH WIND       PRES   REMARKS
GRAND JUNCTION FAIR      57  29  34 VRB7      30.17F
MONTROSE       PTSUNNY   51  29  42 NW9       30.19S
EAGLE          MOSUNNY   48  25  40 N15G21    30.18S
RIFLE          FAIR      56  28  34 NW8G16    30.17S
DELTA          FAIR      60  27  28 W12G18    30.15S
NUCLA          FAIR      52  30  43 NW13G18   30.21S
$$

COZ017>023-064>068-242000-
...SOUTHWEST COLORADO...

CITY           SKY/WX    TMP DP  RH WIND       PRES   REMARKS
DURANGO        FAIR      56  23  27 W9        30.06S
CORTEZ         FAIR      55  32  41 N15G28    30.15R
PAGOSA SPRINGS PTSUNNY   42  37  83 E3        30.12R
TELLURIDE      FAIR      37  27  68 W5        30.22S
WOLF CREEK PAS FAIR      32  16  51 NW5       30.23R WCI  27
$$

COZ009-010-012-014-032>034-037-058>063-242000-
...CENTRAL COLORADO...

CITY           SKY/WX    TMP DP  RH WIND       PRES   REMARKS
ASPEN          CLOUDY    42  28  57 N9        30.16S
BUENA VISTA    FAIR      51  16  24 NW20G35   30.07S
COPPER MTN     NOT AVBL
BERTHOUD PASS  CLOUDY    19   9  63 N8G25     30.20R WCI   9
COTTONWOOD PAS FAIR      46  12  25 CALM      30.12R
GUNNISON       FAIR      46  22  38 N14       30.12S
KREMMLING      PTSUNNY   50  27  40 N13G22    30.19S
LEADVILLE      CLOUDY    34  18  52 N17G26    30.15R WCI  23
MONARCH PASS   PTSUNNY   28  23  80 W18       30.27R WCI  16
SALIDA         FAIR      55  21  25 NE14G23   30.13S
SUNLIGHT       CLOUDY   N/A N/A N/A NW6       30.29R
WILKERSON PASS   N/A     27  25  93 NE12G26   30.17R WCI  16
$$

COZ069>075-242000-
...SAN LUIS VALLEY/SANGRE DE CRISTO MOUNTAINS...

CITY           SKY/WX    TMP DP  RH WIND       PRES   REMARKS
ALAMOSA        FAIR      50  28  42 NW23G32   30.04R
LA VETA PASS   NOT AVBL
SAGUACHE       FAIR      52  25  35 N25G31    30.07R
$$

COZ035-036-038>040-242000-
...NORTHERN COLORADO FRONT RANGE...

CITY           SKY/WX    TMP DP  RH WIND       PRES   REMARKS
DENVER INTL AP PTSUNNY   45  34  65 N18       30.12S
DMNS CITY PARK   N/A     49  29  46 NE18G33   30.12S
AURORA         CLOUDY    45  38  76 N23G30    30.12F
FRONT RANGE AP PTSUNNY   43  34  70 N22G36    30.13S
ERIE MUNI ARPT CLOUDY    50  27  40 N16G25    30.12S
BOULDER MUN AP PTSUNNY   52  27  37 NE18G25   30.11S
CENTENNIAL     CLOUDY    44  33  65 N17G30    30.12S
BROOMFIELD     PTSUNNY   48  28  46 N20       30.13S
FORT COLLINS   PTSUNNY   54  28  36 N23G32    30.11F
LONGMONT       PTSUNNY   59  27  29 N17G29    30.13S
$$

COZ041-046-047-076>085-087-088-242000-
...PIKES PEAK/PALMER DIVIDE AND SOUTHERN FOOTHILLS...

CITY           SKY/WX    TMP DP  RH WIND       PRES   REMARKS
COLO. SPRINGS  PTSUNNY   41  31  67 N29G39    30.09R
A. F. ACADEMY  CLOUDY    37  30  75 N21G30    30.08S
SCHRIEVER AFB  LGT RAIN  38  31  76 N29G39    30.07R
ELLICOTT       NOT AVBL
FALCON         FLURRIES  37  31  81 N28G39    30.09R
FORT CARSON    CLOUDY    44  29  56 N31G40    30.07R
LIMON          MIX PCPN  35  35 100 N31G39    30.07R WCI  22
MONUMENT HILL  CLOUDY    32  30  93 N22G30    30.12S WCI  19
TRINIDAD       NOT AVBL
$$

COZ042>045-048>051-090-091-242000-
...NORTHEAST COLORADO...

CITY           SKY/WX    TMP DP  RH WIND       PRES   REMARKS
GREELEY ARPT   CLOUDY    52  29  41 N22G31    30.13S
AKRON          LGT RAIN  41  36  82 N30G39    30.07R
BURLINGTON     CLOUDY    39  37  92 N32G38    29.97R
WRAY           NOT AVBL
STERLING       CLOUDY    48  37  66 N23G30    30.08R
HOLYOKE        DRIZZLE   43  37  81 N26G37    30.04R
FORT MORGAN    CLOUDY    48  32  52 N21G33    30.12R
$$

COZ086-089-092>099-242000-
...SOUTHEAST COLORADO...

CITY           SKY/WX    TMP DP  RH WIND       PRES   REMARKS
PUEBLO         CLOUDY    47  31  53 N32G43    30.10R
LA JUNTA       CLOUDY    41  36  82 N35G49    30.02R
LAMAR          CLOUDY    44  34  67 N35G44    29.93R
SPRINGFIELD      N/A     41  34  76 N40G47    29.89R
$$



USA.gov is the U.S. government's official web portal to all federal, state and local government web resources and services.